| time (UTC) | temp C | wind direction | speed KPH | gust KPH | rain 1hr cm | rain 24hr cm | rain mn cm | humidity % | barometer mb |
| 20260506201941 | 8 | 262 | 3.2 | 4.8 | 0.00 | 1.09 | 1.09 | 95 | 1008.8 |
| 20260506201438 | 8 | 132 | 8.0 | 9.7 | 0.00 | 1.09 | 1.09 | 95 | 1008.5 |
| 20260506200935 | 8 | 311 | 4.8 | 8.0 | 0.18 | 1.09 | 1.09 | 95 | 1008.5 |
| 20260506200431 | 8 | 312 | 4.8 | 4.8 | 0.18 | 1.09 | 1.09 | 95 | 1008.7 |
| 20260506195928 | 8 | 121 | 3.2 | 4.8 | 0.00 | 1.07 | 1.07 | 95 | 1008.5 |
| 20260506195425 | 8 | 228 | 1.6 | 1.6 | 0.00 | 1.07 | 1.07 | 95 | 1008.4 |
| 20260506194921 | 8 | 275 | 3.2 | 4.8 | 0.13 | 1.07 | 1.07 | 95 | 1008.7 |
| 20260506194419 | 8 | 169 | 1.6 | 1.6 | 0.13 | 1.07 | 1.07 | 95 | 1008.6 |
| 20260506193915 | 8 | 66 | 4.8 | 4.8 | 0.00 | 1.04 | 1.04 | 95 | 1008.7 |
| 20260506193412 | 8 | 170 | 1.6 | 3.2 | 0.18 | 1.04 | 1.04 | 95 | 1008.8 |
| 20260506192909 | 8 | 210 | 1.6 | 1.6 | 0.18 | 1.04 | 1.04 | 95 | 1008.5 |
| 20260506192406 | 8 | 188 | 3.2 | 3.2 | 0.13 | 1.02 | 1.02 | 95 | 1008.2 |
| 20260506191903 | 8 | 307 | 6.4 | 8.0 | 0.13 | 1.02 | 1.02 | 95 | 1008.3 |
| 20260506191359 | 8 | 174 | 0.0 | 1.6 | 0.18 | 0.99 | 0.99 | 95 | 1008.4 |
| 20260506190856 | 8 | 316 | 8.0 | 11.3 | 0.18 | 0.99 | 0.99 | 95 | 1008.3 |
| 20260506190353 | 8 | 217 | 4.8 | 8.0 | 0.00 | 0.97 | 0.97 | 95 | 1008.1 |
| 20260506185849 | 8 | 226 | 4.8 | 4.8 | 0.00 | 0.97 | 0.97 | 95 | 1008.0 |
| 20260506185347 | 8 | 148 | 1.6 | 1.6 | 0.00 | 0.97 | 0.97 | 95 | 1007.9 |
| 20260506184843 | 8 | 340 | 4.8 | 4.8 | 0.00 | 0.97 | 0.97 | 95 | 1008.0 |
| 20260506184340 | 8 | 252 | 3.2 | 4.8 | 0.00 | 0.97 | 0.97 | 95 | 1008.0 |
| 20260506183838 | 8 | 297 | 4.8 | 4.8 | 0.00 | 0.97 | 0.97 | 95 | 1007.9 |
| 20260506183333 | 8 | 257 | 11.3 | 12.9 | 0.00 | 0.97 | 0.97 | 95 | 1007.8 |
| 20260506182831 | 8 | 245 | 6.4 | 9.7 | 0.00 | 0.97 | 0.97 | 95 | 1007.9 |
| 20260506182327 | 8 | 217 | 3.2 | 4.8 | 0.00 | 0.97 | 0.97 | 95 | 1007.7 |
| 20260506181825 | 8 | 207 | 1.6 | 3.2 | 0.00 | 0.97 | 0.97 | 95 | 1007.8 |
| 20260506181323 | 8 | 151 | 1.6 | 3.2 | 0.00 | 0.97 | 0.97 | 95 | 1007.7 |
| 20260506180820 | 8 | 278 | 4.8 | 4.8 | 0.00 | 0.97 | 0.97 | 95 | 1007.7 |
| 20260506180316 | 8 | 304 | 4.8 | 8.0 | 0.00 | 0.97 | 0.97 | 95 | 1007.8 |
| 20260506175812 | 8 | 282 | 3.2 | 3.2 | 0.00 | 0.97 | 0.97 | 95 | 1007.7 |
| 20260506175309 | 8 | 215 | 1.6 | 1.6 | 0.00 | 0.97 | 0.97 | 95 | 1007.6 |
| 20260506174807 | 8 | 277 | 4.8 | 8.0 | 0.00 | 0.97 | 0.97 | 95 | 1007.5 |
| 20260506174304 | 8 | 103 | 1.6 | 1.6 | 0.00 | 0.97 | 0.97 | 95 | 1007.3 |
| 20260506173801 | 8 | 257 | 4.8 | 4.8 | 0.00 | 0.97 | 0.97 | 95 | 1007.5 |
| 20260506173258 | 8 | 222 | 3.2 | 3.2 | 0.00 | 0.97 | 0.97 | 95 | 1007.2 |
| 20260506172754 | 8 | 277 | 4.8 | 4.8 | 0.00 | 0.97 | 0.97 | 95 | 1007.4 |
| 20260506172251 | 8 | 169 | 0.0 | 1.6 | 0.13 | 0.97 | 0.97 | 95 | 1007.3 |
| 20260506171749 | 8 | 261 | 4.8 | 4.8 | 0.13 | 0.97 | 0.97 | 95 | 1007.2 |
| 20260506171246 | 8 | 235 | 3.2 | 4.8 | 0.00 | 0.94 | 0.94 | 95 | 1007.0 |
| 20260506170744 | 9 | 290 | 4.8 | 4.8 | 0.00 | 0.94 | 0.94 | 95 | 1007.2 |
| 20260506170240 | 8 | 166 | 0.0 | 0.0 | 0.00 | 0.94 | 0.94 | 95 | 1007.4 |
| 20260506165738 | 9 | 331 | 9.7 | 12.9 | 0.00 | 0.94 | 0.94 | 95 | 1007.1 |
| 20260506165235 | 9 | 344 | 4.8 | 4.8 | 0.00 | 0.94 | 0.94 | 95 | 1007.1 |
| 20260506164732 | 9 | 4 | 4.8 | 8.0 | 0.00 | 0.94 | 0.94 | 95 | 1007.1 |
| 20260506164229 | 10 | 337 | 8.0 | 9.7 | 0.00 | 0.94 | 0.94 | 95 | 1006.8 |
| 20260506163726 | 10 | 311 | 3.2 | 3.2 | 0.00 | 0.94 | 0.94 | 95 | 1006.9 |
| 20260506163220 | 10 | 342 | 3.2 | 3.2 | 0.00 | 0.94 | 0.94 | 95 | 1007.0 |
| 20260506162717 | 10 | 324 | 8.0 | 9.7 | 0.00 | 0.94 | 0.94 | 95 | 1007.1 |
| 20260506162214 | 11 | 210 | 3.2 | 4.8 | 0.00 | 0.94 | 0.94 | 95 | 1006.9 |
| 20260506161706 | 11 | 341 | 4.8 | 8.0 | 0.00 | 0.94 | 0.94 | 95 | 1006.6 |
| 20260506161203 | 12 | 273 | 6.4 | 9.7 | 0.00 | 0.94 | 0.94 | 95 | 1006.7 |
| 20260506160700 | 13 | 170 | 0.0 | 1.6 | 0.00 | 0.94 | 0.94 | 95 | 1006.4 |
| 20260506160157 | 13 | 172 | 0.0 | 0.0 | 0.00 | 0.94 | 0.94 | 95 | 1006.6 |
| 20260506155655 | 13 | 197 | 1.6 | 3.2 | 0.00 | 0.94 | 0.94 | 95 | 1006.7 |
| 20260506155152 | 13 | 152 | 0.0 | 0.0 | 0.00 | 0.94 | 0.94 | 95 | 1006.4 |
| 20260506153254 | 13 | 179 | 1.6 | 1.6 | 0.00 | 0.91 | 0.91 | 95 | 1006.8 |
| 20260506152751 | 13 | 156 | 0.0 | 0.0 | 0.00 | 0.91 | 0.91 | 95 | 1006.8 |
| 20260506152249 | 13 | 146 | 4.8 | 4.8 | 0.00 | 0.91 | 0.91 | 95 | 1006.8 |
| 20260506151747 | 13 | 123 | 3.2 | 3.2 | 0.00 | 0.91 | 0.91 | 95 | 1006.8 |
| 20260506151244 | 13 | 121 | 1.6 | 1.6 | 0.18 | 0.91 | 0.91 | 95 | 1007.0 |
| 20260506150740 | 13 | 143 | 1.6 | 3.2 | 0.18 | 0.91 | 0.91 | 95 | 1006.7 |
| 20260506150238 | 13 | 126 | 4.8 | 4.8 | 0.00 | 0.89 | 0.89 | 95 | 1006.8 |
| 20260506145734 | 13 | 120 | 3.2 | 4.8 | 0.00 | 0.89 | 0.89 | 95 | 1006.8 |
| 20260506145230 | 13 | 164 | 6.4 | 8.0 | 0.00 | 0.89 | 0.89 | 95 | 1006.6 |
| 20260506144728 | 13 | 122 | 4.8 | 4.8 | 0.00 | 0.89 | 0.89 | 95 | 1006.6 |
| 20260506144225 | 13 | 122 | 4.8 | 4.8 | 0.00 | 0.89 | 0.89 | 95 | 1006.4 |
| 20260506143722 | 13 | 139 | 1.6 | 1.6 | 0.00 | 0.89 | 0.89 | 95 | 1006.4 |
| 20260506143220 | 13 | 123 | 4.8 | 8.0 | 0.00 | 0.89 | 0.89 | 95 | 1006.7 |
| 20260506142719 | 13 | 127 | 0.0 | 1.6 | 0.00 | 0.89 | 0.89 | 95 | 1006.6 |
| 20260506142216 | 12 | 120 | 8.0 | 9.7 | 0.13 | 0.89 | 0.89 | 95 | 1006.6 |
| 20260506141714 | 13 | 102 | 4.8 | 4.8 | 0.13 | 0.89 | 0.89 | 95 | 1006.7 |
| 20260506141212 | 12 | 133 | 4.8 | 8.0 | 0.00 | 0.86 | 0.86 | 95 | 1006.8 |
| 20260506140709 | 12 | 120 | 4.8 | 4.8 | 0.00 | 0.86 | 0.86 | 95 | 1006.4 |
| 20260506140206 | 12 | 119 | 1.6 | 3.2 | 0.18 | 0.86 | 0.86 | 95 | 1006.8 |
| 20260506135703 | 12 | 129 | 3.2 | 3.2 | 0.18 | 0.86 | 0.86 | 95 | 1007.0 |
| 20260506135159 | 12 | 143 | 3.2 | 3.2 | 0.00 | 0.84 | 0.84 | 95 | 1006.9 |
| 20260506134656 | 12 | 146 | 0.0 | 1.6 | 0.13 | 0.84 | 0.84 | 95 | 1007.0 |
| 20260506134152 | 12 | 120 | 4.8 | 4.8 | 0.30 | 0.84 | 0.84 | 95 | 1007.0 |
| 20260506133649 | 11 | 136 | 3.2 | 4.8 | 0.30 | 0.81 | 0.81 | 95 | 1007.1 |
| 20260506133146 | 11 | 147 | 4.8 | 4.8 | 0.30 | 0.79 | 0.79 | 95 | 1007.4 |
| 20260506132643 | 11 | 139 | 1.6 | 3.2 | 0.30 | 0.76 | 0.76 | 95 | 1007.2 |
| 20260506132140 | 11 | 111 | 3.2 | 3.2 | 0.43 | 0.74 | 0.74 | 95 | 1007.3 |
| 20260506131638 | 11 | 173 | 1.6 | 3.2 | 0.48 | 0.71 | 0.71 | 95 | 1007.2 |
| 20260506131134 | 11 | 132 | 3.2 | 4.8 | 0.30 | 0.66 | 0.66 | 95 | 1007.5 |
| 20260506130631 | 11 | 97 | 1.6 | 1.6 | 0.48 | 0.64 | 0.64 | 95 | 1007.6 |
| 20260506130128 | 10 | 133 | 1.6 | 4.8 | 0.66 | 0.61 | 0.61 | 95 | 1007.5 |
| 20260506125626 | 10 | 137 | 0.0 | 0.0 | 0.43 | 0.56 | 0.56 | 95 | 1007.8 |
| 20260506125124 | 10 | 159 | 0.0 | 0.0 | 0.43 | 0.51 | 0.51 | 95 | 1008.0 |
| 20260506124621 | 10 | 159 | 0.0 | 0.0 | 0.48 | 0.48 | 0.48 | 95 | 1007.5 |
| 20260506124119 | 10 | 163 | 1.6 | 1.6 | 0.30 | 0.43 | 0.43 | 95 | 1007.3 |
| 20260506123616 | 10 | 142 | 1.6 | 3.2 | 0.30 | 0.41 | 0.41 | 95 | 1007.4 |
| 20260506123115 | 10 | 161 | 0.0 | 0.0 | 0.30 | 0.38 | 0.38 | 95 | 1007.3 |
| 20260506122611 | 10 | 169 | 0.0 | 0.0 | 0.13 | 0.36 | 0.36 | 95 | 1007.4 |
| 20260506122109 | 10 | 162 | 0.0 | 0.0 | 0.00 | 0.33 | 0.33 | 95 | 1007.1 |
| 20260506121607 | 10 | 162 | 1.6 | 1.6 | 0.18 | 0.33 | 0.33 | 95 | 1006.9 |
| 20260506121103 | 9 | 150 | 1.6 | 1.6 | 0.18 | 0.33 | 0.33 | 95 | 1007.2 |
| 20260506120601 | 9 | 135 | 1.6 | 1.6 | 0.00 | 0.30 | 0.30 | 95 | 1007.2 |
| 20260506120058 | 9 | 135 | 3.2 | 3.2 | 0.00 | 0.30 | 0.30 | 95 | 1007.3 |
| 20260506115556 | 9 | 143 | 4.8 | 4.8 | 0.13 | 0.30 | 0.30 | 95 | 1007.4 |
| 20260506115054 | 9 | 118 | 4.8 | 4.8 | 0.13 | 0.30 | 0.30 | 95 | 1007.3 |
| 20260506114551 | 9 | 168 | 1.6 | 1.6 | 0.18 | 0.28 | 0.28 | 94 | 1007.7 |
| 20260506114049 | 9 | 149 | 1.6 | 1.6 | 0.36 | 0.28 | 0.28 | 94 | 1007.7 |
| 20260506113547 | 9 | 173 | 0.0 | 0.0 | 0.48 | 0.25 | 0.25 | 94 | 1007.9 |
| 20260506113044 | 9 | 146 | 0.0 | 0.0 | 0.30 | 0.20 | 0.20 | 94 | 1007.7 |
| 20260506112540 | 9 | 147 | 0.0 | 0.0 | 0.30 | 0.18 | 0.18 | 94 | 1007.9 |
| 20260506112038 | 9 | 147 | 0.0 | 0.0 | 0.18 | 0.15 | 0.15 | 94 | 1008.1 |
| 20260506111536 | 9 | 147 | 0.0 | 0.0 | 0.00 | 0.13 | 0.13 | 94 | 1008.0 |
| 20260506111033 | 9 | 147 | 0.0 | 0.0 | 0.00 | 0.13 | 0.13 | 94 | 1008.1 |
| 20260506110530 | 9 | 147 | 0.0 | 0.0 | 0.00 | 0.13 | 0.13 | 94 | 1008.1 |
| 20260506110027 | 9 | 146 | 0.0 | 0.0 | 0.13 | 0.13 | 0.13 | 94 | 1008.1 |
| 20260506105523 | 9 | 145 | 0.0 | 0.0 | 0.13 | 0.13 | 0.13 | 94 | 1008.3 |
| 20260506105021 | 9 | 144 | 0.0 | 0.0 | 0.00 | 0.10 | 0.10 | 94 | 1008.0 |
| 20260506104519 | 9 | 160 | 0.0 | 0.0 | 0.00 | 0.10 | 0.10 | 94 | 1007.8 |
| 20260506104016 | 9 | 171 | 0.0 | 0.0 | 0.18 | 0.10 | 0.10 | 94 | 1007.9 |
| 20260506103513 | 9 | 177 | 0.0 | 0.0 | 0.18 | 0.10 | 0.10 | 93 | 1008.1 |
| 20260506103010 | 9 | 178 | 0.0 | 0.0 | 0.00 | 0.08 | 0.08 | 93 | 1007.9 |
| 20260506102509 | 9 | 187 | 1.6 | 1.6 | 0.00 | 0.08 | 0.08 | 93 | 1008.0 |
| 20260506102005 | 9 | 173 | 0.0 | 0.0 | 0.00 | 0.08 | 0.08 | 93 | 1007.9 |
| 20260506101502 | 9 | 197 | 1.6 | 1.6 | 0.00 | 0.08 | 0.08 | 93 | 1007.5 |
| 20260506100959 | 9 | 96 | 1.6 | 3.2 | 0.13 | 0.08 | 0.08 | 93 | 1007.5 |
| 20260506100457 | 9 | 209 | 1.6 | 3.2 | 0.13 | 0.08 | 0.08 | 93 | 1007.7 |
| 20260506095955 | 9 | 338 | 4.8 | 4.8 | 0.00 | 0.05 | 0.05 | 93 | 1007.7 |
| 20260506095454 | 9 | 134 | 0.0 | 1.6 | 0.00 | 0.05 | 0.05 | 93 | 1007.7 |
| 20260506094949 | 9 | 183 | 0.0 | 1.6 | 0.00 | 0.05 | 0.05 | 93 | 1007.6 |
| 20260506094448 | 9 | 152 | 1.6 | 1.6 | 0.00 | 0.05 | 0.05 | 93 | 1007.5 |
| 20260506093945 | 9 | 195 | 1.6 | 1.6 | 0.00 | 0.05 | 0.05 | 93 | 1007.7 |
| 20260506093443 | 9 | 187 | 0.0 | 0.0 | 0.18 | 0.05 | 0.05 | 93 | 1007.7 |
| 20260506092940 | 9 | 184 | 1.6 | 1.6 | 0.18 | 0.05 | 0.05 | 93 | 1007.3 |
| 20260506092438 | 9 | 170 | 0.0 | 0.0 | 0.00 | 0.03 | 0.03 | 92 | 1007.5 |
| 20260506091934 | 9 | 173 | 0.0 | 1.6 | 0.00 | 0.03 | 0.03 | 92 | 1007.6 |
| 20260506091433 | 9 | 138 | 1.6 | 3.2 | 0.13 | 0.03 | 0.03 | 92 | 1007.6 |
| 20260506090930 | 9 | 150 | 0.0 | 0.0 | 0.13 | 0.03 | 0.03 | 92 | 1007.7 |
| 20260506090427 | 9 | 150 | 0.0 | 0.0 | 0.00 | 0.00 | 0.00 | 92 | 1008.0 |
| 20260506085923 | 9 | 156 | 0.0 | 0.0 | 0.00 | 0.00 | 0.00 | 92 | 1007.8 |
| 20260506085420 | 9 | 166 | 1.6 | 1.6 | 0.00 | 0.00 | 0.00 | 92 | 1007.9 |
| 20260506084911 | 9 | 116 | 1.6 | 1.6 | 0.00 | 0.00 | 0.00 | 92 | 1008.2 |
| 20260506084408 | 9 | 165 | 0.0 | 0.0 | 0.00 | 0.00 | 0.00 | 92 | 1008.1 |
| 20260506083904 | 9 | 179 | 1.6 | 3.2 | 0.00 | 0.00 | 0.00 | 92 | 1007.8 |
| 20260506083402 | 9 | 172 | 0.0 | 0.0 | 0.00 | 0.00 | 0.00 | 91 | 1007.8 |
| 20260506082859 | 9 | 164 | 0.0 | 0.0 | 0.00 | 0.00 | 0.00 | 91 | 1008.0 |
| 20260506082355 | 9 | 171 | 0.0 | 0.0 | 0.00 | 0.00 | 0.00 | 91 | 1008.0 |
| 20260506081851 | 9 | 150 | 1.6 | 1.6 | 0.00 | 0.00 | 0.00 | 91 | 1008.2 |
| 20260506081350 | 9 | 160 | 0.0 | 0.0 | 0.00 | 0.00 | 0.00 | 91 | 1007.9 |
| 20260506080847 | 9 | 161 | 0.0 | 1.6 | 0.00 | 0.00 | 0.00 | 91 | 1007.7 |
| 20260506080344 | 9 | 163 | 0.0 | 1.6 | 0.00 | 0.00 | 0.00 | 91 | 1007.9 |
| 20260506073322 | 9 | 148 | 0.0 | 1.6 | 0.00 | 0.00 | 0.00 | 91 | 1008.2 |
| 20260506072819 | 9 | 148 | 0.0 | 1.6 | 0.00 | 0.00 | 0.00 | 91 | 1008.2 |
| 20260506072316 | 10 | 128 | 1.6 | 1.6 | 0.00 | 0.00 | 0.00 | 91 | 1008.0 |
| 20260506071814 | 10 | 152 | 0.0 | 1.6 | 0.00 | 0.00 | 0.00 | 91 | 1008.3 |
| 20260506071312 | 10 | 140 | 1.6 | 1.6 | 0.00 | 0.00 | 0.00 | 91 | 1008.3 |
| 20260506070808 | 9 | 174 | 1.6 | 1.6 | 0.00 | 0.00 | 0.00 | 91 | 1008.2 |
| 20260506070305 | 9 | 134 | 1.6 | 1.6 | 0.00 | 0.00 | 0.00 | 91 | 1008.2 |
| 20260506062243 | 9 | 157 | 0.0 | 0.0 | 0.00 | 0.00 | 0.00 | 90 | 1008.9 |
| 20260506061738 | 10 | 154 | 0.0 | 0.0 | 0.00 | 0.00 | 0.00 | 90 | 1008.8 |
| 20260506061235 | 10 | 155 | 0.0 | 0.0 | 0.00 | 0.00 | 0.00 | 90 | 1008.9 |
| 20260506060734 | 10 | 148 | 1.6 | 1.6 | 0.00 | 0.00 | 0.00 | 90 | 1008.9 |
| 20260506060230 | 10 | 155 | 0.0 | 0.0 | 0.00 | 0.00 | 0.00 | 90 | 1009.0 |
| 20260506051157 | 10 | 134 | 0.0 | 0.0 | 0.00 | 0.00 | 0.00 | 89 | 1009.4 |
| 20260506050655 | 10 | 107 | 3.2 | 3.2 | 0.00 | 0.00 | 0.00 | 88 | 1009.8 |
| 20260506050152 | 10 | 144 | 1.6 | 1.6 | 0.00 | 0.00 | 0.00 | 88 | 1010.1 |
| 20260506044643 | 10 | 107 | 3.2 | 3.2 | 0.00 | 0.00 | 0.00 | 88 | 1010.0 |
| 20260506044140 | 10 | 100 | 3.2 | 3.2 | 0.00 | 0.00 | 0.00 | 88 | 1010.3 |
| 20260506043637 | 9 | 34 | 4.8 | 4.8 | 0.00 | 0.00 | 0.00 | 88 | 1010.1 |
| 20260506043135 | 10 | 90 | 4.8 | 4.8 | 0.00 | 0.00 | 0.00 | 88 | 1010.0 |
| 20260506042634 | 10 | 107 | 3.2 | 3.2 | 0.00 | 0.00 | 0.00 | 87 | 1009.6 |
| 20260506042132 | 10 | 23 | 4.8 | 4.8 | 0.00 | 0.00 | 0.00 | 87 | 1009.8 |
| 20260506041630 | 10 | 91 | 4.8 | 4.8 | 0.00 | 0.00 | 0.00 | 87 | 1009.8 |
| 20260506041126 | 10 | 117 | 3.2 | 3.2 | 0.00 | 0.00 | 0.00 | 87 | 1009.8 |
| 20260506040624 | 10 | 92 | 3.2 | 3.2 | 0.00 | 0.00 | 0.00 | 87 | 1010.1 |
| 20260506040120 | 10 | 145 | 0.0 | 0.0 | 0.00 | 0.00 | 0.00 | 87 | 1010.1 |
| 20260506035617 | 10 | 139 | 0.0 | 0.0 | 0.00 | 0.25 | 0.25 | 87 | 1009.8 |
| 20260506035114 | 10 | 105 | 3.2 | 3.2 | 0.00 | 0.25 | 0.25 | 87 | 1010.2 |
| 20260506034611 | 10 | 147 | 0.0 | 1.6 | 0.00 | 0.25 | 0.25 | 86 | 1010.5 |
| 20260506034108 | 10 | 100 | 3.2 | 3.2 | 0.00 | 0.25 | 0.25 | 87 | 1010.3 |
| 20260506033605 | 10 | 131 | 1.6 | 1.6 | 0.00 | 0.25 | 0.25 | 86 | 1010.4 |
| 20260506033102 | 10 | 144 | 0.0 | 1.6 | 0.00 | 0.25 | 0.25 | 86 | 1010.5 |
| 20260506032600 | 10 | 132 | 1.6 | 1.6 | 0.00 | 0.25 | 0.25 | 86 | 1010.4 |
| 20260506032056 | 10 | 143 | 1.6 | 1.6 | 0.00 | 0.25 | 0.25 | 85 | 1010.2 |
| 20260506031554 | 11 | 153 | 0.0 | 0.0 | 0.00 | 0.25 | 0.25 | 85 | 1010.1 |
| 20260506031050 | 11 | 199 | 1.6 | 1.6 | 0.00 | 0.25 | 0.25 | 85 | 1010.4 |
| 20260506030549 | 11 | 144 | 0.0 | 0.0 | 0.00 | 0.25 | 0.25 | 84 | 1010.4 |
| 20260506030046 | 11 | 176 | 0.0 | 1.6 | 0.00 | 0.25 | 0.25 | 84 | 1010.5 |
| 20260506025542 | 12 | 175 | 1.6 | 1.6 | 0.00 | 0.25 | 0.25 | 84 | 1010.3 |
| 20260506025038 | 12 | 132 | 1.6 | 1.6 | 0.00 | 0.25 | 0.25 | 84 | 1010.4 |
| 20260506024536 | 12 | 152 | 1.6 | 1.6 | 0.00 | 0.25 | 0.25 | 84 | 1010.4 |
| 20260506024032 | 12 | 233 | 3.2 | 4.8 | 0.00 | 0.25 | 0.25 | 84 | 1010.4 |
| 20260506023528 | 12 | 202 | 3.2 | 3.2 | 0.00 | 0.25 | 0.25 | 84 | 1010.6 |
| 20260506023026 | 12 | 214 | 1.6 | 3.2 | 0.00 | 0.25 | 0.25 | 84 | 1010.8 |
| 20260506022523 | 12 | 254 | 1.6 | 3.2 | 0.00 | 0.25 | 0.25 | 84 | 1010.6 |
| 20260506022021 | 12 | 344 | 3.2 | 3.2 | 0.00 | 0.25 | 0.25 | 85 | 1010.5 |
| 20260506021518 | 12 | 160 | 0.0 | 1.6 | 0.00 | 0.25 | 0.25 | 84 | 1010.7 |
| 20260506021015 | 12 | 193 | 1.6 | 1.6 | 0.00 | 0.25 | 0.25 | 84 | 1010.9 |
| 20260506020513 | 12 | 182 | 0.0 | 0.0 | 0.00 | 0.25 | 0.25 | 84 | 1010.6 |
| 20260506020010 | 12 | 106 | 1.6 | 3.2 | 0.00 | 0.25 | 0.25 | 84 | 1010.4 |
| 20260506015507 | 12 | 131 | 1.6 | 1.6 | 0.00 | 0.25 | 0.25 | 83 | 1010.4 |
| 20260506015004 | 12 | 183 | 1.6 | 1.6 | 0.00 | 0.25 | 0.25 | 83 | 1010.1 |
| 20260506014502 | 13 | 237 | 1.6 | 3.2 | 0.00 | 0.25 | 0.25 | 84 | 1010.0 |
| 20260506013957 | 13 | 252 | 3.2 | 3.2 | 0.00 | 0.25 | 0.25 | 84 | 1010.0 |
| 20260506013455 | 13 | 165 | 1.6 | 1.6 | 0.00 | 0.25 | 0.25 | 84 | 1010.0 |
| 20260506012951 | 13 | 247 | 6.4 | 9.7 | 0.00 | 0.25 | 0.25 | 84 | 1009.6 |
| 20260506012448 | 14 | 188 | 4.8 | 4.8 | 0.00 | 0.25 | 0.25 | 84 | 1009.5 |
| 20260506011945 | 14 | 242 | 6.4 | 9.7 | 0.00 | 0.25 | 0.25 | 84 | 1009.4 |
| 20260506011442 | 15 | 140 | 3.2 | 4.8 | 0.00 | 0.25 | 0.25 | 85 | 1009.4 |
| 20260506010939 | 15 | 246 | 4.8 | 4.8 | 0.00 | 0.25 | 0.25 | 86 | 1009.0 |
| 20260506010438 | 15 | 348 | 4.8 | 4.8 | 0.00 | 0.25 | 0.25 | 85 | 1008.9 |
| 20260506005934 | 15 | 213 | 1.6 | 1.6 | 0.00 | 0.25 | 0.25 | 85 | 1009.0 |
| 20260506005432 | 15 | 174 | 1.6 | 1.6 | 0.00 | 0.25 | 0.25 | 85 | 1008.6 |
| 20260506004926 | 15 | 234 | 4.8 | 4.8 | 0.00 | 0.25 | 0.25 | 85 | 1008.7 |
| 20260506004425 | 15 | 147 | 1.6 | 1.6 | 0.00 | 0.25 | 0.25 | 85 | 1008.7 |
| 20260506003920 | 15 | 183 | 1.6 | 3.2 | 0.00 | 0.25 | 0.25 | 85 | 1008.5 |
| 20260506003417 | 15 | 185 | 1.6 | 1.6 | 0.00 | 0.25 | 0.25 | 86 | 1008.6 |
| 20260506002914 | 15 | 124 | 1.6 | 1.6 | 0.00 | 0.25 | 0.25 | 86 | 1008.5 |
| 20260506002410 | 16 | 175 | 1.6 | 1.6 | 0.00 | 0.25 | 0.25 | 86 | 1008.6 |
| 20260506001905 | 16 | 214 | 1.6 | 1.6 | 0.00 | 0.25 | 0.25 | 86 | 1008.4 |
| 20260506001403 | 16 | 206 | 0.0 | 1.6 | 0.00 | 0.25 | 0.25 | 87 | 1008.4 |
| 20260506000900 | 16 | 207 | 0.0 | 1.6 | 0.00 | 0.25 | 0.25 | 86 | 1008.0 |
| 20260506000358 | 16 | 338 | 6.4 | 8.0 | 0.00 | 0.25 | 0.25 | 86 | 1008.2 |
| 20260505235854 | 16 | 173 | 3.2 | 3.2 | 0.00 | 0.25 | 0.25 | 85 | 1007.8 |
| 20260505235352 | 16 | 181 | 1.6 | 1.6 | 0.00 | 0.25 | 0.25 | 85 | 1007.9 |
| 20260505234848 | 16 | 176 | 1.6 | 1.6 | 0.00 | 0.25 | 0.25 | 85 | 1007.5 |
| 20260505234346 | 16 | 176 | 0.0 | 0.0 | 0.00 | 0.25 | 0.25 | 85 | 1007.8 |
| 20260505233843 | 16 | 176 | 0.0 | 1.6 | 0.00 | 0.25 | 0.25 | 85 | 1007.6 |
| 20260505233341 | 16 | 191 | 0.0 | 0.0 | 0.00 | 0.25 | 0.25 | 85 | 1007.8 |
| 20260505232838 | 16 | 191 | 1.6 | 1.6 | 0.00 | 0.25 | 0.25 | 85 | 1007.7 |
| 20260505232336 | 17 | 190 | 0.0 | 0.0 | 0.00 | 0.25 | 0.25 | 84 | 1007.8 |
| 20260505231832 | 17 | 194 | 0.0 | 0.0 | 0.00 | 0.25 | 0.25 | 84 | 1007.8 |
| 20260505231330 | 17 | 194 | 0.0 | 1.6 | 0.18 | 0.25 | 0.25 | 83 | 1007.6 |
| 20260505230828 | 17 | 191 | 0.0 | 1.6 | 0.18 | 0.25 | 0.25 | 83 | 1007.6 |
| 20260505230325 | 17 | 191 | 0.0 | 0.0 | 0.00 | 0.23 | 0.23 | 82 | 1007.3 |
| 20260505225821 | 17 | 155 | 1.6 | 1.6 | 0.00 | 0.23 | 0.23 | 81 | 1007.4 |
| 20260505225319 | 17 | 205 | 3.2 | 3.2 | 0.00 | 0.23 | 0.23 | 80 | 1007.6 |
| 20260505224814 | 17 | 173 | 1.6 | 3.2 | 0.00 | 0.23 | 0.23 | 80 | 1007.8 |
| 20260505224312 | 17 | 163 | 3.2 | 8.0 | 0.00 | 0.23 | 0.23 | 80 | 1008.0 |
| 20260505223808 | 17 | 161 | 0.0 | 0.0 | 0.13 | 0.23 | 0.23 | 81 | 1007.9 |
| 20260505223306 | 18 | 160 | 0.0 | 0.0 | 0.13 | 0.23 | 0.23 | 81 | 1007.9 |
| 20260505222801 | 18 | 160 | 0.0 | 0.0 | 0.00 | 0.20 | 0.20 | 79 | 1007.5 |
| 20260505222257 | 18 | 160 | 0.0 | 1.6 | 0.00 | 0.20 | 0.20 | 78 | 1007.5 |
| 20260505221755 | 18 | 160 | 1.6 | 1.6 | 0.00 | 0.20 | 0.20 | 78 | 1007.3 |
| 20260505221251 | 18 | 134 | 3.2 | 3.2 | 0.00 | 0.20 | 0.20 | 77 | 1006.8 |
| 20260505220748 | 18 | 160 | 0.0 | 0.0 | 0.00 | 0.20 | 0.20 | 77 | 1007.4 |
| 20260505220245 | 18 | 160 | 0.0 | 0.0 | 0.00 | 0.20 | 0.20 | 77 | 1006.8 |
| 20260505215744 | 18 | 160 | 1.6 | 3.2 | 0.00 | 0.20 | 0.20 | 77 | 1006.9 |
| 20260505215241 | 18 | 160 | 0.0 | 0.0 | 0.00 | 0.20 | 0.20 | 76 | 1007.2 |
| 20260505214739 | 18 | 160 | 0.0 | 0.0 | 0.00 | 0.20 | 0.20 | 77 | 1006.9 |
| 20260505214236 | 18 | 160 | 0.0 | 1.6 | 0.00 | 0.20 | 0.20 | 77 | 1006.8 |
| 20260505213733 | 18 | 161 | 1.6 | 1.6 | 0.00 | 0.20 | 0.20 | 76 | 1006.8 |
| 20260505213230 | 18 | 146 | 1.6 | 1.6 | 0.00 | 0.20 | 0.20 | 79 | 1006.7 |
| 20260505212726 | 17 | 133 | 1.6 | 1.6 | 0.00 | 0.20 | 0.20 | 81 | 1006.4 |
| 20260505212224 | 17 | 145 | 0.0 | 1.6 | 0.00 | 0.20 | 0.20 | 82 | 1006.4 |
| 20260505211721 | 16 | 131 | 6.4 | 8.0 | 0.00 | 0.20 | 0.20 | 83 | 1006.8 |
| 20260505211218 | 16 | 134 | 4.8 | 4.8 | 0.00 | 0.20 | 0.20 | 85 | 1006.7 |
| 20260505210714 | 16 | 164 | 1.6 | 3.2 | 0.00 | 0.20 | 0.20 | 88 | 1006.7 |
| 20260505210211 | 16 | 135 | 4.8 | 4.8 | 0.00 | 0.20 | 0.20 | 88 | 1006.4 |
| 20260505205708 | 16 | 163 | 4.8 | 4.8 | 0.00 | 0.20 | 0.20 | 88 | 1006.7 |
| 20260505205207 | 16 | 157 | 1.6 | 1.6 | 0.00 | 0.20 | 0.20 | 89 | 1006.6 |
| 20260505204703 | 16 | 155 | 1.6 | 1.6 | 0.00 | 0.20 | 0.20 | 89 | 1006.7 |
| 20260505204200 | 15 | 155 | 1.6 | 1.6 | 0.00 | 0.20 | 0.20 | 89 | 1006.8 |
| 20260505203652 | 15 | 155 | 1.6 | 1.6 | 0.00 | 0.20 | 0.20 | 88 | 1006.9 |
| 20260505203148 | 15 | 138 | 0.0 | 0.0 | 0.00 | 0.20 | 0.20 | 88 | 1007.0 |
| 20260505202644 | 15 | 291 | 6.4 | 8.0 | 0.00 | 0.20 | 0.20 | 88 | 1007.1 |